Location: GMARS
(34.2910°N, 116.3838°W)
Time: 08:40:18
(UTC-07:00)

Daily predictions for brighter satellites

Satellite Brightness Start Highest point End
(mag) Time Altitude Azimuth Time Altitude Azimuth Time Altitude Azimuth
Milstar 3 Cent rocket 3.1 20:05:07 10° W 20:14:15 51° SSW 20:19:25 10° ESE
Resurs 01 Rocket 3.5 20:13:57 10° SSW 20:17:54 31° W 20:21:53 10° NW
Okean 1-7 Rocket 4.2 20:15:30 10° SSW 20:19:51 62° W 20:24:12 10° N
Cosmos 2333 Rocket 2.7 20:15:38 10° SSW 20:21:15 69° WNW 20:26:54 10° NNE
Meteor 2-15 Rocket 4.5 20:17:36 10° S 20:23:40 88° E 20:29:45 10° N
Cosmos 1242 Rocket 3.7 20:20:23 10° SSW 20:23:59 48° W 20:27:37 10° N
Cosmos 1975 3.2 20:20:02 10° NNW 20:24:02 69° W 20:27:58 10° S
H-2A R/B 2.9 20:21:28 10° SSE 20:25:20 62° ENE 20:29:16 10° N
USA 186 1.5 20:24:04 10° SSE 20:27:03 70° ENE 20:29:53 10° N
ATLAS CENTAUR R/B 2.2 20:26:17 10° SW 20:31:08 69° WNW 20:36:11 10° NNE
Cosmos 2098 Rocket 2.6 20:29:29 10° N 20:32:51 80° E 20:37:00 10° S
Cosmos 158 Rocket 4.0 20:30:20 10° SSW 20:35:21 87° WNW 20:40:32 10° NNE
Cosmos 1844 4.0 20:29:58 10° NNW 20:35:43 72° WSW 20:41:28 10° SSE
Cosmos 1844 Rocket 3.5 20:31:07 10° NNW 20:36:35 50° WSW 20:41:58 10° S
SeaSat 1 3.8 20:32:58 10° ESE 20:36:49 24° NE 20:40:43 10° N
BREEZE-M DEB (TANK) 3.9 20:32:56 10° NW 20:37:02 88° SW 20:51:07 13° SE
Hubble Space Telescope 2.7 20:35:05 10° WSW 20:37:50 17° SSW 20:40:34 10° SSE
RESURS DK-1 4.4 20:36:55 10° NW 20:40:20 25° WSW 20:43:44 10° SSW
Cosmos 1025 Rocket 3.1 20:36:14 10° S 20:40:37 89° W 20:45:01 10° N
Cosmos 1892 Rocket 3.6 20:36:35 10° S 20:40:55 60° E 20:45:18 10° NNE
Cosmos 2228 4.4 20:38:55 10° NNE 20:42:27 23° ENE 20:44:51 15° ESE
Cosmos 2251 Rocket 3.5 20:37:15 10° SSW 20:42:33 88° E 20:47:54 10° NNE
FENGYUN 3A 3.8 20:39:41 10° S 20:45:02 79° WSW 20:50:26 10° NNW
OTV 4 1.1 20:42:27 10° W 20:45:17 41° SSW 20:47:03 19° SE
ALOS 2.8 20:47:08 10° S 20:51:43 58° W 20:56:20 10° NNW
IUS-17 SRM-1 3.9 20:49:42 10° WSW 20:52:36 42° S 21:00:44 12° ESE
Atlas Centaur 2 3.4 20:48:22 10° SW 20:55:19 39° SSE 21:03:03 10° E
BREEZE-M R/B 4.3 20:52:27 10° WNW 20:55:29 32° SW 20:59:58 13° SSE
Cosmos 1939 Rocket 3.3 20:55:28 19° SE 20:58:12 47° ENE 21:02:11 10° N
COSMOS 2455 3.9 20:56:15 15° SSE 20:59:31 24° ESE 21:04:11 10° NE
Cosmos 2237 Rocket 4.0 20:55:12 10° SW 21:00:15 34° WNW 21:05:22 10° N
Envisat 3.5 20:57:00 18° SE 21:00:22 42° ENE 21:05:09 10° N
ERS-1 Rocket 2.9 20:56:52 11° SSE 21:01:45 90° W 21:06:47 10° NNW
Nimbus 7 Rocket 4.4 20:56:01 10° NNE 21:01:57 68° ESE 21:07:48 10° S
PSLV R/B 4.3 21:02:46 25° E 21:03:26 27° ENE 21:06:08 10° NNE
Cosmos 1110 Rocket 4.0 20:59:57 10° NNW 21:05:15 74° ENE 21:08:59 19° SSE
Meteor 1-15 Rocket 4.5 21:00:18 10° N 21:05:43 50° ENE 21:09:17 21° SE
ATLAS 3B R/B 4.2 21:05:14 17° ESE 21:05:50 17° ESE 21:10:28 10° ENE
Cosmos 2285 Rocket 4.1 21:04:05 10° N 21:10:21 63° ENE 21:14:32 22° SSE
Cosmos 1726 Rocket 3.7 21:06:02 10° N 21:10:28 75° W 21:14:14 14° S
Cosmos 2278 Rocket 2.9 21:05:45 10° NNW 21:11:14 52° WSW 21:16:32 11° S
Lacrosse 5 rocket 3.7 21:10:56 10° W 21:14:08 25° NW 21:17:29 10° NNE
Cosmos 2058 Rocket 3.1 21:14:45 10° N 21:19:08 80° W 21:22:04 20° S
USA 234 3.9 21:15:11 18° ESE 21:19:45 46° NE 21:25:56 10° NNW
Abrixas rocket 4.3 21:17:37 10° NNW 21:20:20 21° NNE 21:21:51 16° ENE
Aureole 2 Rocket 2.7 21:17:03 10° SSW 21:21:11 86° WNW 21:24:58 10° NNE
Gbstr 26 Del rocket 4.5 21:14:27 10° NW 21:21:58 81° NE 21:27:05 26° SE
Cosmos 1666 2.7 21:19:07 10° N 21:23:00 66° E 21:24:20 38° SSE
Okean 2 4.0 21:19:54 10° SSW 21:24:00 57° W 21:28:07 10° N
Cosmos 1602 Rocket 3.5 21:22:08 25° S 21:24:40 66° E 21:29:07 10° NNE
OAO 3 Copernicus 4.3 21:19:38 10° W 21:24:42 85° N 21:27:35 26° E
Cosmos 1464 Rocket 3.9 21:19:05 10° N 21:25:14 89° W 21:29:56 18° S
Cosmos 2369 Rocket 4.3 21:23:31 10° NNE 21:25:50 12° NE 21:28:01 10° ENE
SL-16 R/B 3.2 21:21:03 10° SW 21:26:29 48° WNW 21:31:57 10° N
ARGOS 4.1 21:29:43 27° ESE 21:31:24 32° ENE 21:36:10 10° N
H-2A R/B 3.9 21:31:07 13° ENE 21:31:56 14° ENE 21:34:25 10° NE
Cosmos 1743 4.4 21:28:51 10° NNW 21:32:14 30° W 21:35:25 11° SSW
Cosmos 1812 Rocket 3.9 21:34:38 10° N 21:38:51 45° E 21:39:24 42° ESE
Cosmos 1461 3.8 21:35:41 10° N 21:39:33 33° NE 21:40:09 32° ENE
SPOT 1/Viking Rocket 3.9 21:38:23 37° ESE 21:39:56 48° ENE 21:44:53 10° N
PSLV R/B 3.3 21:36:28 10° WSW 21:40:00 85° NNW 21:40:53 48° ENE
UNK 4.2 21:37:01 10° NNE 21:42:26 84° WNW 21:47:45 12° SSW
Cosmos 2034 Rocket 4.0 21:36:10 10° N 21:42:33 88° W 21:46:17 27° S
Timation 1 Rocket 4.4 21:40:20 10° NNW 21:46:18 65° ENE 21:48:25 40° SE
Cosmos 1515 4.3 21:48:48 42° ENE 21:48:48 42° ENE 21:51:54 10° NNE
H-2A R/B 3.8 21:45:35 14° SSW 21:48:28 27° W 21:52:09 10° NW
MetOp-B 4.1 21:51:23 40° S 21:53:25 86° WSW 21:58:48 10° NNW
Cosmos 1603 3.8 21:49:29 10° SSW 21:55:06 75° WNW 22:00:43 10° NNE
CZ-4 R/B 3.8 21:51:23 10° NNE 21:56:23 74° ESE 21:57:41 49° S
SPOT 5 3.3 21:56:47 33° SSW 21:58:22 50° W 22:02:38 10° NNW
Geosat 3.8 21:53:20 10° NNE 21:58:22 74° ESE 22:00:05 42° S
Cosmos 1626 Rocket 4.4 21:55:59 21° SSW 21:58:39 48° W 22:02:57 10° N
SeaSat 1 3.4 22:12:45 32° SW 22:14:05 38° WSW 22:18:41 10° NW
Landsat 7 4.2 22:14:36 49° ENE 22:14:36 49° ENE 22:19:02 10° N
Cosmos 1953 Rocket 4.3 22:15:36 41° NE 22:15:36 41° NE 22:18:49 10° NNE
APEX 4.5 22:13:38 10° NW 22:17:47 47° WSW 22:18:34 43° SW
DELTA 2 DEB (DPAF) 4.3 22:18:19 65° NE 22:18:19 65° NE 22:22:29 10° N
YAOGAN 6 3.7 22:22:00 41° W 22:22:00 41° W 22:25:10 10° NNW
Cosmos 1943 3.0 22:21:12 69° SE 22:21:37 73° ESE 22:27:18 10° NNE
Meteor 2-12 Rocket 4.5 22:19:12 10° N 22:25:15 73° W 22:26:47 51° SSW
Cosmos 2346 Rocket 4.4 22:26:02 53° SSW 22:27:40 85° W 22:33:51 10° N
CZ-4C R/B 3.8 22:29:37 64° NNW 22:29:37 64° NNW 22:33:12 10° NNW
Terra 2.4 22:30:52 46° NE 22:30:52 46° NE 22:34:50 10° N
SL-08 RB Rocket 4.1 22:39:27 58° WNW 22:39:27 58° WNW 22:43:36 10° NNW
Cosmos 1943 Rocket 3.8 22:38:18 10° N 22:42:22 20° ENE 22:42:31 20° ENE
Cosmos 407 Rocket 3.7 22:45:24 64° NNE 22:45:24 64° NNE 22:49:51 10° NNE
Atlas Centaur 2 3.0 22:36:43 10° WSW 22:44:49 64° S 22:46:00 58° SE
COSMOS 2455 3.8 22:39:23 10° SW 22:45:05 45° WNW 22:50:49 10° NNE
Cosmos 1758 Rocket 4.5 22:50:23 46° N 22:50:23 46° N 22:53:32 10° N
Milstar 3 Cent rocket 4.4 22:48:06 10° WSW 22:48:42 12° WSW 22:48:42 12° WSW
ATLAS 3B R/B 2.9 22:52:19 37° SW 22:55:47 83° WNW 23:03:24 10° NNE
Lacrosse 4 Rocket 3.5 23:03:16 21° NNE 23:03:16 21° NNE 23:04:45 10° NNE
USA 234 3.7 23:02:32 45° SW 23:02:40 45° SW 23:08:54 10° NW
Cosmos 2369 Rocket 2.4 23:04:53 10° NNW 23:09:48 67° NW 23:09:48 67° NW
H-2A R/B 2.7 23:11:45 47° WNW 23:11:45 47° WNW 23:15:42 10° NNW
COSMOS 2406 4.3 23:26:15 36° NE 23:26:15 36° NE 23:29:40 10° NNE
USA 238 DEB 4.0 23:26:50 58° ENE 23:26:50 58° ENE 23:32:38 10° NE
USA 238 4.0 23:26:58 57° ENE 23:26:58 57° ENE 23:32:43 10° NE
Nadezhda 4 Rocket 4.1 23:26:47 71° NNE 23:26:47 71° NNE 23:32:23 10° N
